Location: Newark
(49.1939°N, 0.8136°E)
Time: 06:55:49
(UTC+00:00)

N. Korean satellite - Visible Passes

Search period start: 13 November 2019 00:00
Search period end: 23 November 2019 00:00
Orbit: 456 x 506 km, 97.2° (Epoch: 12 November)

Date Brightness Start Highest point End Pass type
(mag) Time Alt. Az. Time Alt. Az. Time Alt. Az.
13 Nov 8.0 05:33:47 10° NNE 05:37:23 43° E 05:40:55 10° S visible
13 Nov 9.3 17:46:59 10° SSW 17:49:54 23° W 17:52:51 10° NW visible
14 Nov 9.3 05:08:50 10° NE 05:11:52 23° E 05:14:51 10° SSE visible
14 Nov 8.0 17:20:56 10° S 17:24:22 43° W 17:27:54 10° NNW visible
15 Nov 10.2 04:44:32 10° ENE 04:46:15 13° E 04:47:57 10° ESE visible
15 Nov 6.7 06:16:20 10° N 06:20:02 60° WNW 06:23:40 10° SSW visible
15 Nov 6.7 16:55:20 10° SSE 16:58:57 87° WSW 17:02:39 10° NNW visible
16 Nov 7.0 05:50:56 10° NNE 05:54:40 69° ESE 05:58:21 10° S visible
16 Nov 10.0 18:05:06 10° SW 18:07:17 15° W 18:09:30 10° NW visible
17 Nov 8.4 05:25:46 10° NNE 05:29:13 35° E 05:32:36 10° SSE visible
17 Nov 9.0 17:38:32 10° SSW 17:41:41 27° W 17:44:55 10° NW visible
18 Nov 9.6 05:00:56 10° NE 05:03:39 19° E 05:06:21 10° SE visible
18 Nov 7.1 06:33:44 10° N 06:37:12 38° WNW 06:40:38 10° SW visible
18 Nov 7.5 17:12:37 10° S 17:16:12 53° W 17:19:51 10° NNW visible
19 Nov 10.3 04:37:27 10° ENE 04:38:00 10° E 04:38:34 10° E visible
19 Nov 6.5 06:08:10 10° N 06:11:54 74° WNW 06:15:33 10° SSW visible
19 Nov 6.6 16:47:09 10° SSE 16:50:47 76° ENE 16:54:30 10° N visible
20 Nov 7.4 05:42:49 10° NNE 05:46:30 55° E 05:50:06 10° S visible
20 Nov 9.7 17:56:25 10° SW 17:59:02 18° W 18:01:41 10° NW visible
21 Nov 8.8 05:17:43 10° NNE 05:21:00 28° E 05:24:13 10° SSE visible
21 Nov 8.5 17:30:06 10° SSW 17:33:28 34° W 17:36:53 10° NNW visible
22 Nov 9.8 04:53:05 10° NE 04:55:24 16° E 04:57:41 10° SE visible
22 Nov 6.9 06:25:29 10° N 06:29:03 46° WNW 06:32:34 10° SW visible
22 Nov 7.1 17:04:20 10° S 17:07:59 67° WSW 17:11:43 10° NNW visible
